******************************************************************************* JPL/HORIZONS NEOWISE (C/2020 F3) 2022-Jul-02 21:47:38 Rec #:90004503 (+COV) Soln.date: 2021-Oct-06_18:57:33 # obs: 1313 (2020-2021) IAU76/J2000 helio. ecliptic osc. elements (au, days, deg., period=Julian yrs): EPOCH= 2459037.5 ! 2020-Jul-07.0000000 (TDB) RMSW= n.a. EC= .9991780264791564 QR= .294651243326241 TP= 2459034.178897087 OM= 61.01042698860387 W= 37.27866088872548 IN= 128.9375018624312 A= 358.4680477588249 MA= .000482292747736603 ADIST= 716.6414442743235 PER= 6787.0944095185 N= .000145221 ANGMOM= .013202656 DAN= .32816 DDN= 2.8741 L= 35.4440752 B= 28.1074543 MOID= .362515 TP= 2020-Jul-03.6788970870 Comet physical (GM= km^3/s^2; RAD= km): GM= n.a. RAD= n.a. M1= 12.1 M2= n.a. k1= 12. k2= n.a. PHCOF= n.a. COMET comments 1: soln ref.= JPL#29, data arc: 2020-03-27 to 2021-06-08 2: k1=12.; ******************************************************************************* ******************************************************************************* Ephemeris / WWW_USER Sat Jul 2 21:47:38 2022 Pasadena, USA / Horizons ******************************************************************************* Target body name: NEOWISE (C/2020 F3) {source: JPL#29} Center body name: Sun (10) {source: DE441} Center-site name: BODY CENTER ******************************************************************************* Start time : A.D. 2020-Jun-29 01:40:00.0000 TDB Stop time : A.D. 2020-Jun-29 02:00:00.0000 TDB Step-size : 1 minutes ******************************************************************************* Center geodetic : 0.00000000,0.00000000,0.0000000 {E-lon(deg),Lat(deg),Alt(km)} Center cylindric: 0.00000000,0.00000000,0.0000000 {E-lon(deg),Dxy(km),Dz(km)} Center radii : 696000.0 x 696000.0 x 696000.0 k{Equator, meridian, pole} Small perturbers: Yes {source: SB441-N16} Output units : AU-D Output type : GEOMETRIC cartesian states Output format : 1 (position only) Reference frame : Ecliptic of J2000.0 ******************************************************************************* Initial IAU76/J2000 heliocentric ecliptic osculating elements (au, days, deg.): EPOCH= 2459037.5 ! 2020-Jul-07.0000000 (TDB) RMSW= n.a. EC= .9991780264791564 QR= .294651243326241 TP= 2459034.178897087 OM= 61.01042698860387 W= 37.27866088872548 IN= 128.9375018624312 Equivalent ICRF heliocentric cartesian coordinates (au, au/d): X= 2.197458581617445E-01 Y=-6.124344485292474E-02 Z= 2.138579085647453E-01 VX=-1.437281697314809E-03 VY=-4.325251281856881E-02 VZ= 4.361682136435718E-03 Comet physical (GM= km^3/s^2; RAD= km): GM= n.a. RAD= n.a. M1= 12.1 M2= n.a. k1= 12. k2= n.a. PHCOF= n.a. ******************************************************************************* JDTDB, Calendar Date (TDB), X, Y, Z, ************************************************************************************************************************** $$SOE 2459029.569444444, A.D. 2020-Jun-29 01:40:00.0000, 1.589609066260367E-01, 2.871697172957535E-01, -1.640464271173443E-04, 2459029.570138889, A.D. 2020-Jun-29 01:41:00.0000, 1.589717049534715E-01, 2.871529760429022E-01, -1.423144007639060E-04, 2459029.570833333, A.D. 2020-Jun-29 01:42:00.0000, 1.589825026393127E-01, 2.871362336311327E-01, -1.205823738361896E-04, 2459029.571527778, A.D. 2020-Jun-29 01:43:00.0000, 1.589932996834612E-01, 2.871194900604128E-01, -9.885034642187509E-05, 2459029.572222222, A.D. 2020-Jun-29 01:44:00.0000, 1.590040960858183E-01, 2.871027453307098E-01, -7.711831860849317E-05, 2459029.572916667, A.D. 2020-Jun-29 01:45:00.0000, 1.590148918462850E-01, 2.870859994419920E-01, -5.538629048394797E-05, 2459029.573611111, A.D. 2020-Jun-29 01:46:00.0000, 1.590256869647626E-01, 2.870692523942267E-01, -3.365426213578256E-05, 2459029.574305556, A.D. 2020-Jun-29 01:47:00.0000, 1.590364814411520E-01, 2.870525041873820E-01, -1.192223365177660E-05, 2459029.575000000, A.D. 2020-Jun-29 01:48:00.0000, 1.590472752753545E-01, 2.870357548214255E-01, 9.809794880290284E-06, 2459029.575694445, A.D. 2020-Jun-29 01:49:00.0000, 1.590580684672712E-01, 2.870190042963252E-01, 3.154182337267578E-05, 2459029.576388889, A.D. 2020-Jun-29 01:50:00.0000, 1.590688610168030E-01, 2.870022526120488E-01, 5.327385173765006E-05, 2459029.577083333, A.D. 2020-Jun-29 01:51:00.0000, 1.590796529238512E-01, 2.869854997685641E-01, 7.500587988735875E-05, 2459029.577777778, A.D. 2020-Jun-29 01:52:00.0000, 1.590904441883167E-01, 2.869687457658392E-01, 9.673790773409693E-05, 2459029.578472222, A.D. 2020-Jun-29 01:53:00.0000, 1.591012348101009E-01, 2.869519906038419E-01, 1.184699351899480E-04, 2459029.579166667, A.D. 2020-Jun-29 01:54:00.0000, 1.591120247891046E-01, 2.869352342825399E-01, 1.402019621671696E-04, 2459029.579861111, A.D. 2020-Jun-29 01:55:00.0000, 1.591228141252289E-01, 2.869184768019014E-01, 1.619339885777830E-04, 2459029.580555555, A.D. 2020-Jun-29 01:56:00.0000, 1.591336028183750E-01, 2.869017181618941E-01, 1.836660143340458E-04, 2459029.581250000, A.D. 2020-Jun-29 01:57:00.0000, 1.591443908684439E-01, 2.868849583624860E-01, 2.053980393480787E-04, 2459029.581944444, A.D. 2020-Jun-29 01:58:00.0000, 1.591551782753367E-01, 2.868681974036452E-01, 2.271300635318905E-04, 2459029.582638889, A.D. 2020-Jun-29 01:59:00.0000, 1.591659650389544E-01, 2.868514352853396E-01, 2.488620867976517E-04, 2459029.583333333, A.D. 2020-Jun-29 02:00:00.0000, 1.591767511591981E-01, 2.868346720075372E-01, 2.705941090574332E-04, $$EOE ************************************************************************************************************************** TIME Barycentric Dynamical Time ("TDB" or T_eph) output was requested. This continuous relativistic coordinate time is equivalent to the relativistic proper time of a clock at rest in a reference frame comoving with the solar system barycenter but outside the system's gravity well. It is the independent variable in the solar system relativistic equations of motion. TDB runs at a uniform rate of one SI second per second and is independent of irregularities in Earth's rotation. Calendar dates prior to 1582-Oct-15 are in the Julian calendar system. Later calendar dates are in the Gregorian system. REFERENCE FRAME AND COORDINATES Ecliptic at the standard reference epoch Reference epoch: J2000.0 X-Y plane: adopted Earth orbital plane at the reference epoch Note: IAU76 obliquity of 84381.448 arcseconds wrt ICRF X-Y plane X-axis : ICRF Z-axis : perpendicular to the X-Y plane in the directional (+ or -) sense of Earth's north pole at the reference epoch. Symbol meaning [1 au= 149597870.700 km, 1 day= 86400.0 s]: JDTDB Julian Day Number, Barycentric Dynamical Time X X-component of position vector (au) Y Y-component of position vector (au) Z Z-component of position vector (au) ABERRATIONS AND CORRECTIONS Geometric state vectors have NO corrections or aberrations applied. Computations by ... Solar System Dynamics Group, Horizons On-Line Ephemeris System 4800 Oak Grove Drive, Jet Propulsion Laboratory Pasadena, CA 91109 USA General site: https://ssd.jpl.nasa.gov/ Mailing list: https://ssd.jpl.nasa.gov/email_list.html System news : https://ssd.jpl.nasa.gov/horizons/news.html User Guide : https://ssd.jpl.nasa.gov/horizons/manual.html Connect : browser https://ssd.jpl.nasa.gov/horizons/app.html#/x API https://ssd-api.jpl.nasa.gov/doc/horizons.html command-line telnet ssd.jpl.nasa.gov 6775 e-mail/batch https://ssd.jpl.nasa.gov/ftp/ssd/hrzn_batch.txt scripts https://ssd.jpl.nasa.gov/ftp/ssd/SCRIPTS Author : Jon.D.Giorgini@jpl.nasa.gov ******************************************************************************* !$$SOF COMMAND = 'C/2020 F3' MAKE_EPHEM = 'YES' TABLE_TYPE = 'VECTORS' START_TIME = '2020-06-29 1:40' STOP_TIME = '2020-06-29 2:00' STEP_SIZE = '1 m' CSV_FORMAT = 'YES' LABELS = 'NO' CENTER = '@sun' REF_PLANE = 'ECLIPTIC' REF_SYSTEM = 'J2000' OUT_UNITS = 'AU-D' VEC_TABLE = '1'